Location: Newark
(42.8481°N, 0.4872°E)
Time: 16:38:26
(UTC+00:00)

Vanguard 1 - Pass Details

Date: 05 November 2020
Orbit: 650 x 3833 km, 34.2° (Epoch: 28 November)

Event Time Altitude Azimuth Distance (km) Brightness Sun altitude
Rises 16:46:55 0° 283° (WNW) 7,954 15.8 -1.2°
Reaches altitude 10° 16:53:03 10° 277° (W) 6,935 15.6 -2.2°
Maximum altitude 17:12:13 37° 221° (SW) 4,368 14.0 -5.6°
Drops below altitude 10° 17:25:59 10° 161° (SSE) 4,997 13.6 -8.0°
Sets 17:29:35 0° 152° (SSE) 5,605 13.8 -8.6°
